Temperature
16 16 16 16 16 16 15 15 15 15 15 15 14 14 14 14 14 14 14 14 14 14 13 13 13 13 13 13 13 13 13 12 12 11 11 11 11 11 11 11 11 11 11
16 16 16 16 16 16 15 15 15 15 15 14 14 14 14 14 14 14 14 13 13 13 13 13 13 13 13 13 13 13 12 12 12 11 11 11 11 11 10 10 10 10 10
16 16 16 16 16 15 15 15 15 15 15 14 14 14 14 14 14 13 13 13 13 13 13 13 13 13 13 12 12 12 12 12 11 11 11 11 10 10 10 10 10 10 10
16 16 16 16 16 15 15 15 15 15 15 14 14 14 14 14 13 13 13 13 13 13 13 12 12 12 12 12 12 12 12 11 11 11 11 10 10 10 10 10 10 10 10
16 16 16 16 15 15 15 15 15 15 14 14 14 14 14 13 13 13 13 13 13 13 12 12 12 12 12 12 12 11 11 11 11 11 10 10 10 10 10 9 9 9 9
16 16 16 16 15 15 15 15 15 14 14 14 14 14 14 13 13 13 13 13 13 13 12 12 12 12 11 11 11 11 11 11 10 10 10 10 10 9 9 9 9 9 8
16 16 16 16 15 15 15 15 15 14 14 14 14 14 13 13 13 13 13 13 12 12 12 12 12 12 11 11 11 11 10 10 10 10 10 9 9 9 8 8 8 8 8
16 16 16 16 15 15 15 15 14 14 14 14 13 13 13 13 13 13 12 12 12 12 12 12 11 11 11 11 10 10 10 10 10 9 9 9 8 8 8 8 7 7 7
16 16 16 16 15 15 15 15 14 14 14 14 13 13 13 13 12 12 12 12 12 12 11 11 11 11 11 10 10 10 10 10 9 9 9 8 8 8 8 7 7 7 7
16 16 16 15 15 15 15 14 14 14 14 13 13 13 13 12 12 12 12 12 12 11 11 11 11 10 10 10 10 10 10 9 9 9 8 8 8 8 7 7 7 6 6
16 16 15 15 15 15 14 14 14 13 13 13 13 13 12 12 12 12 12 11 11 11 11 11 11 10 10 10 9 9 9 9 8 8 8 8 8 7 7 6 6 6 5
16 16 15 15 15 14 14 14 13 13 13 13 13 12 12 12 12 12 11 11 11 11 11 10 10 10 9 9 9 9 8 8 8 8 7 7 7 7 6 6 6 5 5
16 15 15 15 14 14 14 13 13 13 13 13 12 12 12 12 12 11 11 11 11 11 10 10 10 9 9 9 8 8 8 8 7 7 7 7 6 6 6 6 5 5 5
16 15 15 15 14 14 13 13 13 13 12 12 12 12 12 12 11 11 11 11 10 10 10 10 9 9 9 8 8 8 7 7 7 7 6 6 6 6 6 5 5 5 5
15 15 15 14 14 13 13 13 13 13 13 13 12 12 12 12 11 11 11 11 10 10 10 9 9 9 8 8 8 7 7 7 6 6 6 6 5 5 5 5 4 4 4
15 15 14 14 13 13 13 13 12 12 12 12 12 12 12 11 11 11 10 10 10 9 9 9 9 8 8 8 7 7 7 6 6 6 5 5 5 4 4 4 4 3 3
15 14 14 14 13 13 13 13 12 12 12 11 11 11 11 11 11 10 10 10 9 9 9 8 8 8 7 7 7 7 6 6 6 5 5 5 4 4 4 3 3 3 3
14 14 14 13 13 13 12 12 12 12 12 11 11 11 11 10 10 10 9 9 9 9 8 8 8 7 7 7 6 6 6 5 5 5 4 4 4 3 3 3 3 2 2
14 14 13 13 13 12 12 12 12 11 11 11 11 10 10 10 10 9 9 9 9 8 8 8 7 7 7 6 6 5 5 5 4 4 4 4 3 3 3 2 2 2 2
13 13 13 13 12 12 12 12 11 11 11 11 10 10 10 10 9 9 9 8 8 8 8 7 7 7 6 6 5 5 5 4 4 4 3 3 3 3 2 2 2 1 1
13 13 12 12 12 12 11 11 11 11 11 10 10 10 9 9 9 9 8 8 8 8 7 7 7 6 6 5 5 4 4 4 4 3 3 3 2 2 2 2 1 1 1
13 12 12 12 11 11 11 11 10 10 10 10 9 9 9 8 8 8 8 8 7 7 7 7 6 6 5 5 5 4 4 3 3 3 3 2 2 2 2 1 1 1 0
12 12 12 11 11 11 10 10 10 10 9 9 9 9 8 8 8 8 8 7 7 7 6 6 6 5 5 5 4 4 3 3 3 3 2 2 2 1 1 1 1 0 0
12 12 11 11 11 10 10 10 9 9 9 9 8 8 8 8 8 7 7 7 6 6 6 6 5 5 5 4 4 3 3 3 2 2 2 2 1 1 1 1 0 -0 -0
11 11 11 10 10 10 10 9 9 9 9 8 8 8 8 7 7 7 7 6 6 6 6 5 5 5 4 4 3 3 3 2 2 2 2 1 1 1 0 0 -0 -0 -1
11 10 10 10 10 9 9 9 9 8 8 8 8 7 7 7 7 6 6 6 6 6 5 5 5 4 4 4 3 3 2 2 2 1 1 1 1 0 0 -0 -0 -1 -1
Wind_Speed
7 7 7 6 5 5 5 5 5 4 5 5 5 5 4 4 4 4 4 5 5 4 4 5 4 4 4 4 4 4 4 3 3 1 2 3 4 5 7 8 8 8 8
7 7 7 6 5 5 5 5 5 6 5 5 5 5 4 4 4 5 5 4 4 4 4 5 4 4 5 4 4 4 3 3 3 2 3 3 3 3 4 4 7 8 7
8 8 7 6 6 5 5 5 5 6 5 5 5 5 4 4 4 4 5 5 4 4 4 4 3 4 4 3 4 3 3 3 3 3 1 2 2 3 3 4 5 6 7
8 8 8 7 7 6 5 5 5 6 6 5 5 5 4 4 4 5 5 5 4 3 3 4 3 4 3 3 3 3 3 4 3 3 2 2 2 3 3 3 4 4 4
9 8 8 7 7 7 6 6 6 6 6 6 5 4 4 4 5 6 5 5 5 4 3 3 3 4 5 3 3 2 3 3 3 3 2 2 3 3 3 3 3 4 4
9 8 7 7 7 7 6 6 6 5 5 5 5 5 4 4 6 8 7 5 4 4 3 2 3 4 5 5 5 5 5 4 2 2 1 1 2 2 2 3 2 3 4
9 8 8 8 8 7 7 7 6 5 5 5 4 5 5 5 8 9 9 6 5 3 3 2 2 3 4 3 4 6 5 5 4 3 2 1 1 2 1 2 2 2 3
8 8 8 9 8 7 7 7 6 5 5 5 5 5 5 5 8 9 9 6 5 3 3 3 3 1 2 3 3 3 2 2 2 2 2 2 1 1 0 1 2 2 4
9 9 9 9 9 8 8 7 6 6 5 4 5 5 5 4 8 9 9 5 4 2 2 3 3 2 2 4 4 2 2 2 3 2 2 3 4 5 4 3 3 3 4
10 9 9 9 9 9 8 6 5 5 5 5 4 4 5 4 6 8 8 4 3 2 1 1 2 3 3 4 3 3 1 2 1 3 4 5 5 6 6 2 0 1 3
9 8 8 9 9 8 6 5 6 6 5 5 4 3 3 4 5 7 7 5 5 4 2 1 1 2 2 3 3 2 2 1 0 1 2 3 3 4 4 4 1 1 2
9 9 8 8 8 7 7 6 6 6 6 5 4 2 1 2 3 5 7 7 6 4 3 2 2 3 3 2 2 1 1 2 1 1 1 2 2 3 3 4 4 4 4
10 9 8 7 7 7 8 7 6 6 5 4 4 3 2 2 2 4 6 7 7 4 3 4 3 3 2 1 1 2 2 1 1 0 1 2 3 3 4 4 5 5 6
10 9 8 8 6 6 6 6 6 6 6 5 5 4 3 2 2 2 2 3 4 3 2 3 3 2 2 1 2 2 1 1 1 1 2 3 2 2 3 3 3 3 4
10 9 8 7 7 6 5 5 6 6 8 8 7 6 6 4 5 6 5 4 4 4 3 2 1 1 0 1 1 1 1 1 1 1 2 2 3 3 3 3 2 2 3
9 8 7 6 6 6 5 3 1 3 6 7 8 7 5 6 6 7 7 6 7 7 5 2 2 2 2 2 2 1 1 1 2 2 2 2 3 3 4 3 3 3 4
10 9 7 7 7 6 6 6 4 1 1 4 6 8 7 7 7 7 7 7 7 7 3 2 2 2 2 2 2 2 2 2 2 2 2 2 3 3 3 4 4 4 5
9 9 9 7 7 7 7 6 6 5 4 2 2 5 7 7 7 7 8 6 3 3 2 3 3 3 2 2 2 2 2 2 1 1 2 2 3 3 4 4 4 5 6
8 7 7 6 6 6 6 5 5 5 4 3 2 2 4 5 5 5 7 4 4 3 3 3 3 3 2 2 2 2 2 2 2 2 2 3 3 3 4 5 5 7 6
7 9 8 7 6 6 5 5 5 5 5 4 4 4 3 4 3 3 3 3 4 4 4 4 3 3 3 3 2 2 2 2 2 2 3 3 3 3 4 5 5 5 6
6 7 9 7 6 6 6 6 6 6 5 5 5 5 7 5 5 5 5 5 5 5 5 4 4 4 3 3 2 2 3 2 3 3 3 3 4 4 4 5 5 6 6
7 6 6 6 6 6 6 6 6 6 6 5 4 4 7 5 4 4 5 5 5 5 5 5 4 5 5 4 4 3 3 3 3 3 3 4 4 4 4 5 5 5 6
7 7 6 5 5 6 6 5 5 6 6 5 5 4 5 5 4 4 5 4 4 4 5 5 5 5 5 5 6 6 5 4 4 4 4 4 4 4 5 5 6 7 7
7 7 7 6 5 5 5 5 5 5 5 5 5 5 5 5 5 5 5 4 4 5 5 6 6 7 7 6 6 6 6 6 5 5 5 5 5 5 5 5 6 7 7
6 6 6 6 6 6 5 5 5 5 5 5 5 4 4 5 4 4 4 4 5 5 6 6 6 6 7 7 6 6 6 6 6 6 5 5 4 5 5 6 6 6 7
6 6 5 5 5 5 6 5 5 5 5 4 4 4 4 4 4 4 4 5 4 5 5 5 6 6 6 6 6 7 6 7 7 6 5 4 4 4 4 5 7 7 7
Wind_Direction
161 155 151 156 150 143 149 157 155 143 137 134 128 116 107 97 89 88 88 85 84 71 68 77 65 61 62 53 59 64 67 94 107 343 344 348 14 18 15 21 22 23 20
164 155 156 152 146 146 152 157 150 146 142 137 131 123 118 110 103 105 103 92 92 86 80 80 69 73 63 56 64 66 68 79 111 85 354 356 2 355 1 11 12 13 10
157 154 153 153 150 154 156 150 145 143 136 128 128 130 128 123 115 112 109 103 96 94 97 99 90 84 71 61 67 67 60 62 75 96 11 346 340 351 356 356 3 360 2
158 158 161 165 163 162 156 148 147 144 138 136 136 136 135 129 122 118 112 108 99 90 95 104 101 104 108 97 78 70 75 70 65 68 32 353 335 330 5 352 344 342 346
160 164 172 167 159 151 148 148 144 140 143 141 134 130 126 129 134 131 124 120 111 99 84 85 92 96 95 102 102 105 99 88 77 66 38 12 351 349 339 323 333 326 331
165 170 167 158 154 151 150 144 138 136 136 130 131 130 126 134 136 136 131 125 122 121 112 86 76 73 79 84 92 96 107 111 114 96 59 20 314 310 316 335 338 350 331
165 166 164 161 157 156 152 143 142 144 138 131 132 132 133 139 136 134 133 130 125 130 133 119 93 76 75 81 74 71 70 80 106 137 129 219 261 275 309 339 333 315 288
162 164 162 159 158 155 150 150 149 142 141 141 145 147 144 147 139 134 131 122 117 127 143 142 132 120 102 113 101 72 46 28 62 99 155 211 245 283 224 273 271 300 294
169 172 168 162 159 158 158 158 154 145 145 148 152 151 146 153 143 137 130 124 118 130 146 131 144 161 124 114 110 102 47 346 31 52 48 26 11 10 22 31 5 359 326
179 175 169 163 161 163 165 159 150 149 152 149 148 157 159 164 153 144 141 139 139 142 125 130 140 145 127 117 130 137 151 279 325 13 12 3 3 1 7 34 242 323 309
170 161 162 163 163 161 157 152 147 147 145 149 150 157 164 171 164 159 159 162 163 159 162 193 213 144 132 131 130 157 191 207 251 341 337 339 352 358 355 355 357 212 270
155 155 159 162 163 158 152 152 149 146 147 153 148 151 177 189 172 171 171 172 163 159 180 207 200 154 135 133 123 110 84 62 60 28 1 334 324 314 313 326 319 303 273
155 159 159 154 155 153 155 156 152 153 158 166 163 174 198 208 197 179 174 171 171 176 186 173 160 147 121 87 71 63 66 90 94 42 297 287 284 292 316 326 328 326 318
160 163 159 155 152 151 157 162 163 172 174 176 180 187 193 188 193 185 180 167 165 167 163 149 132 119 105 84 48 37 76 160 178 226 261 275 291 305 310 308 311 318 319
160 161 159 159 158 158 163 171 176 191 190 185 191 185 179 197 210 183 170 175 177 176 146 111 95 84 53 350 334 320 314 327 289 262 271 292 305 309 306 306 303 309 307
160 162 162 161 161 161 157 148 151 175 184 183 181 177 189 194 181 174 176 176 172 158 136 148 184 198 215 236 251 277 279 272 263 259 271 279 292 298 303 307 304 301 299
165 167 166 166 167 169 168 167 168 138 148 178 183 183 185 180 176 174 172 166 162 150 147 182 201 214 227 231 232 241 256 264 260 258 264 274 285 292 299 305 307 304 299
165 169 169 172 173 175 178 178 177 175 180 215 225 203 193 184 174 169 159 141 137 146 176 198 214 219 222 227 232 242 258 274 274 273 276 283 284 291 298 300 299 296 297
164 169 171 170 171 173 171 168 170 174 176 179 173 204 196 181 167 163 154 158 178 193 202 209 217 219 222 226 233 237 244 257 263 268 279 287 290 294 295 294 294 299 300
167 169 167 165 165 164 166 167 172 175 179 183 192 195 171 151 168 183 184 187 193 202 207 211 214 212 215 220 223 225 239 256 264 266 276 281 283 284 285 289 292 296 294
162 167 166 164 170 172 173 178 179 179 186 195 205 198 179 179 191 195 196 202 205 207 207 208 210 213 217 214 214 223 234 251 255 258 269 277 281 285 285 286 291 292 295
163 164 169 173 174 174 176 178 177 181 187 191 199 196 189 187 194 200 204 209 211 209 204 200 207 210 209 209 212 216 230 248 258 261 268 276 281 283 288 290 291 294 296
161 164 166 170 171 172 173 176 180 185 188 191 191 190 189 198 205 207 208 209 206 207 205 200 206 217 222 222 220 214 219 234 245 252 263 276 284 287 288 288 291 296 296
164 167 170 172 169 170 176 183 186 187 188 189 193 198 199 202 205 210 208 205 205 210 211 211 215 221 222 222 224 228 236 247 256 259 256 264 276 283 288 290 291 294 297
164 167 172 175 174 174 176 180 184 189 193 194 195 198 201 201 203 207 206 202 205 214 221 219 220 221 219 218 224 234 246 255 262 269 267 260 269 280 288 294 296 298 297
164 167 170 170 172 175 175 179 185 189 194 197 197 199 199 200 203 202 203 203 208 215 219 220 221 218 216 223 229 236 246 255 263 270 271 264 267 282 290 291 295 298 299
Height
1555 1557 1558 1560 1562 1563 1564 1565 1565 1566 1567 1568 1568 1569 1569 1569 1569 1570 1570 1570 1570 1570 1570 1570 1570 1570 1569 1568 1568 1567 1567 1567 1566 1566 1566 1565 1563 1562 1560 1559 1557 1555 1554
1553 1555 1557 1559 1560 1562 1563 1564 1565 1566 1567 1567 1568 1568 1569 1569 1569 1570 1570 1570 1570 1570 1570 1570 1570 1570 1569 1569 1568 1567 1567 1566 1566 1565 1565 1564 1563 1561 1560 1558 1557 1555 1553
1551 1554 1556 1557 1559 1560 1562 1563 1564 1565 1566 1567 1567 1568 1568 1569 1569 1569 1570 1570 1570 1570 1570 1570 1570 1570 1569 1569 1568 1567 1567 1566 1566 1565 1564 1563 1562 1561 1559 1558 1556 1554 1552
1549 1552 1554 1556 1558 1559 1561 1562 1563 1564 1565 1566 1566 1567 1567 1568 1568 1569 1569 1570 1570 1570 1570 1570 1570 1570 1569 1569 1568 1567 1567 1566 1565 1564 1563 1562 1561 1560 1558 1556 1554 1553 1551
1547 1550 1552 1554 1556 1558 1559 1561 1562 1563 1564 1565 1566 1566 1567 1567 1568 1568 1569 1569 1569 1569 1570 1569 1569 1569 1569 1568 1568 1567 1566 1565 1564 1563 1562 1561 1560 1558 1557 1555 1553 1551 1549
1545 1547 1550 1553 1555 1556 1558 1559 1561 1562 1563 1564 1565 1565 1566 1566 1567 1568 1568 1568 1569 1569 1569 1569 1569 1568 1568 1567 1567 1566 1565 1564 1563 1562 1561 1559 1558 1557 1555 1554 1552 1549 1546
1543 1545 1548 1550 1553 1554 1556 1558 1559 1560 1561 1562 1563 1564 1564 1565 1566 1567 1567 1568 1568 1568 1568 1568 1567 1567 1567 1566 1566 1565 1564 1563 1563 1562 1560 1558 1557 1556 1554 1552 1550 1548 1545
1540 1543 1545 1548 1550 1552 1554 1556 1557 1558 1560 1561 1562 1563 1563 1564 1565 1565 1566 1566 1566 1566 1566 1566 1566 1566 1565 1565 1564 1563 1563 1562 1561 1560 1559 1557 1556 1554 1552 1550 1548 1545 1543
1537 1540 1543 1545 1548 1550 1552 1553 1555 1556 1558 1559 1560 1561 1562 1563 1563 1564 1564 1564 1565 1565 1565 1565 1565 1564 1564 1563 1563 1562 1561 1560 1560 1558 1557 1556 1554 1552 1550 1548 1545 1542 1539
1534 1537 1540 1543 1545 1547 1550 1551 1553 1555 1556 1558 1559 1560 1560 1561 1562 1562 1563 1563 1563 1563 1563 1563 1563 1562 1562 1561 1561 1560 1559 1558 1557 1556 1555 1553 1552 1550 1548 1545 1543 1540 1536
1532 1535 1538 1541 1543 1545 1548 1549 1551 1553 1555 1556 1557 1558 1559 1560 1560 1561 1561 1561 1561 1561 1561 1561 1561 1560 1560 1559 1558 1558 1557 1556 1555 1553 1552 1550 1549 1547 1545 1543 1540 1538 1535
1530 1533 1536 1538 1541 1543 1545 1547 1549 1551 1552 1554 1555 1556 1557 1557 1558 1558 1559 1559 1559 1559 1558 1558 1558 1558 1558 1557 1556 1555 1554 1553 1552 1550 1549 1547 1545 1543 1541 1539 1537 1534 1532
1528 1530 1533 1536 1538 1540 1542 1544 1546 1548 1550 1551 1552 1553 1554 1555 1555 1556 1556 1556 1556 1556 1556 1556 1556 1556 1555 1554 1554 1552 1551 1550 1548 1547 1545 1544 1542 1540 1538 1536 1533 1531 1528
1525 1528 1530 1533 1535 1538 1540 1542 1544 1545 1547 1548 1549 1550 1551 1552 1553 1553 1553 1554 1554 1554 1553 1553 1553 1553 1552 1551 1550 1549 1548 1547 1545 1544 1542 1540 1539 1536 1534 1531 1529 1526 1523
1522 1525 1528 1530 1532 1535 1537 1539 1541 1543 1544 1545 1546 1547 1548 1549 1550 1551 1551 1551 1551 1551 1551 1550 1550 1549 1548 1548 1547 1546 1545 1544 1542 1540 1539 1537 1535 1532 1530 1527 1525 1522 1518
1519 1522 1525 1527 1529 1532 1534 1536 1538 1540 1542 1543 1544 1545 1545 1546 1547 1547 1548 1548 1548 1548 1548 1547 1546 1545 1545 1544 1543 1542 1541 1540 1538 1537 1535 1533 1531 1528 1526 1523 1521 1518 1514
1517 1519 1522 1524 1526 1528 1531 1533 1534 1536 1538 1539 1541 1541 1542 1543 1544 1544 1544 1545 1545 1544 1544 1543 1542 1542 1541 1540 1539 1538 1537 1536 1535 1533 1531 1529 1527 1524 1522 1519 1516 1513 1510
1514 1516 1519 1521 1523 1525 1527 1529 1531 1533 1534 1535 1537 1538 1539 1539 1540 1540 1541 1541 1540 1540 1540 1539 1539 1538 1538 1537 1536 1535 1533 1532 1530 1529 1527 1525 1522 1520 1517 1514 1511 1509 1505
1511 1513 1515 1518 1520 1522 1524 1526 1528 1529 1531 1532 1533 1534 1535 1535 1536 1536 1536 1536 1536 1536 1536 1535 1535 1535 1534 1533 1532 1531 1529 1528 1526 1525 1523 1520 1518 1516 1513 1510 1507 1504 1501
1508 1511 1513 1515 1517 1519 1521 1522 1524 1525 1526 1528 1528 1529 1531 1531 1531 1532 1532 1532 1532 1532 1532 1531 1531 1530 1529 1529 1528 1526 1525 1524 1522 1520 1518 1516 1514 1511 1508 1505 1502 1499 1496
1505 1507 1510 1512 1513 1515 1517 1518 1520 1521 1522 1523 1525 1526 1526 1527 1527 1527 1527 1528 1527 1527 1527 1527 1526 1526 1525 1524 1523 1522 1521 1519 1518 1516 1514 1511 1509 1506 1503 1500 1498 1495 1492
1501 1503 1506 1508 1510 1511 1513 1514 1516 1517 1519 1520 1520 1522 1523 1523 1523 1523 1523 1523 1523 1523 1523 1522 1522 1521 1520 1519 1518 1517 1516 1515 1513 1511 1509 1507 1504 1501 1498 1496 1493 1490 1487
1498 1500 1502 1504 1506 1508 1509 1511 1512 1513 1515 1515 1517 1517 1518 1519 1519 1519 1519 1519 1519 1519 1518 1518 1517 1517 1516 1515 1514 1513 1512 1510 1509 1507 1504 1502 1499 1496 1494 1491 1488 1485 1482
1495 1497 1498 1500 1502 1504 1505 1507 1508 1509 1510 1511 1512 1513 1514 1514 1515 1515 1515 1515 1515 1514 1514 1513 1512 1512 1511 1510 1509 1508 1507 1506 1504 1502 1500 1497 1494 1492 1489 1486 1483 1480 1477
1491 1493 1495 1497 1498 1500 1501 1503 1504 1505 1506 1507 1508 1509 1509 1510 1510 1511 1511 1510 1510 1509 1509 1508 1508 1507 1506 1505 1504 1503 1502 1501 1499 1497 1495 1492 1489 1487 1484 1481 1478 1475 1472
1488 1490 1492 1493 1495 1496 1497 1499 1500 1501 1502 1503 1504 1505 1505 1506 1506 1506 1506 1505 1505 1504 1504 1503 1503 1502 1501 1500 1499 1498 1497 1496 1494 1492 1490 1487 1485 1482 1480 1477 1474 1471 1468